Home   Weather   City of Logansport   Past weeks
Flag for USA

Past Weather in City of Logansport, Indiana, USA — January 2019

Now
39 °F

Fog.


Feels Like: 31 °F
Forecast: 39 / 36 °F
Wind: 13 mph from Northeast

Location: Kokomo Weather Reporting System

Current Time: Feb 25, 2020 at 2:31:53 am

Latest Report: Feb 25, 2020 at 1:56 am


Visibility: 5 mi

Pressure: 29.78 "Hg

Humidity: 100%

Dew Point: 39 °F

Location of City of LogansportLocation

January 2019 Weather in City of Logansport — Graph

°F

High & Low Weather Summary for January 2019

 TemperatureHumidityPressure
High54 °F (Jan 7, 6:38 pm)100% (Jan 2, 10:20 am)30.67 "Hg (Jan 2, 10:20 am)
Low-17 °F (Jan 30, 8:06 am)45% (Jan 31, 1:56 pm)29.60 "Hg (Jan 28, 12:25 pm)
Average25 °F84%30.13 "Hg
* Reported Jan 1 12:29 am — Jan 31 11:56 pm, City of Logansport. Weather by CustomWeather, © 2020

Note: Actual official high and low records may vary slightly from our data, if they occured in-between our weather recording intervals... More about our weather records

City of Logansport Weather History for January 1, 2019

Scroll right to see more
 ConditionsComfort  
Time TempWeatherWind HumidityBarometerVisibility
12:29 am
Tue, Jan 1
39 °FOvercast.21 mph93%29.87 "Hg10 mi
12:56 am38 °FMostly cloudy.22 mph90%29.91 "Hg10 mi
1:56 am38 °FOvercast.14 mph90%29.97 "Hg10 mi
2:56 am37 °FOvercast.15 mph93%30.02 "Hg10 mi
3:56 am37 °FLow clouds.14 mph96%30.05 "Hg10 mi
4:56 am37 °FLow clouds.13 mph93%30.08 "Hg10 mi
5:56 am37 °FLow clouds.9 mph93%30.10 "Hg10 mi
6:56 am36 °FLow clouds.9 mph97%30.13 "Hg10 mi
7:56 am36 °FLow clouds.9 mph97%30.19 "Hg10 mi
8:56 am36 °FLow clouds.6 mph97%30.24 "Hg10 mi
9:34 am36 °FOvercast.8 mph93%30.22 "Hg10 mi
10:22 am37 °FMostly cloudy.10 mph93%30.22 "Hg10 mi
10:56 am38 °FOvercast.12 mph90%30.26 "Hg10 mi
11:56 am37 °FOvercast.7 mph89%30.26 "Hg10 mi
12:56 pm38 °FOvercast.6 mph86%30.25 "Hg10 mi
1:56 pm38 °FMostly cloudy.7 mph83%30.24 "Hg10 mi
2:10 pm37 °FOvercast.6 mph87%30.22 "Hg10 mi
2:56 pm38 °FOvercast.7 mph83%30.24 "Hg10 mi
3:56 pm38 °FOvercast.7 mph83%30.27 "Hg10 mi
4:56 pm37 °FOvercast.7 mph86%30.28 "Hg10 mi
5:56 pm36 °FOvercast.5 mph89%30.29 "Hg10 mi
6:56 pm36 °FOvercast.6 mph85%30.30 "Hg10 mi
7:56 pm35 °FOvercast.6 mph92%30.31 "Hg10 mi
8:56 pm35 °FOvercast.5 mph88%30.31 "Hg10 mi
9:56 pm35 °FOvercast.3 mph88%30.30 "Hg10 mi
10:56 pm34 °FMostly cloudy.6 mph88%30.29 "Hg10 mi
11:56 pm34 °FOvercast.6 mph88%30.30 "Hg10 mi
Weather by CustomWeather, © 2020

See weather overview

Advertising